TimeEST,TemperatureF,Dew PointF,Humidity,Sea Level PressureIn,VisibilityMPH,Wind Direction,Wind SpeedMPH,Gust SpeedMPH,PrecipitationIn,Events,Conditions,WindDirDegrees,DateUTC
12:52 AM,30.0,28.9,96,30.26,7.0,Calm,Calm,-,N/A,,Overcast,0,2013-02-26 05:52:00
1:52 AM,30.0,28.9,96,30.25,5.0,Calm,Calm,-,N/A,,Overcast,0,2013-02-26 06:52:00
2:32 AM,28.4,26.6,93,30.20,1.8,Calm,Calm,-,N/A,,Overcast,0,2013-02-26 07:32:00
2:36 AM,28.4,26.6,93,30.20,0.8,Calm,Calm,-,N/A,,Overcast,0,2013-02-26 07:36:00
2:52 AM,28.0,27.0,96,30.27,0.2,Calm,Calm,-,N/A,Fog,Light Freezing Fog,0,2013-02-26 07:52:00
3:02 AM,26.6,26.6,100,30.22,1.8,Calm,Calm,-,N/A,,Overcast,0,2013-02-26 08:02:00
3:04 AM,26.6,26.6,100,30.22,3.0,Calm,Calm,-,N/A,,Overcast,0,2013-02-26 08:04:00
3:15 AM,26.6,26.6,100,30.22,1.8,Calm,Calm,-,N/A,,Overcast,0,2013-02-26 08:15:00
3:23 AM,26.6,26.6,100,30.23,1.2,Calm,Calm,-,N/A,,Overcast,0,2013-02-26 08:23:00
3:30 AM,26.6,24.8,93,30.23,0.8,Calm,Calm,-,N/A,,Overcast,0,2013-02-26 08:30:00
3:52 AM,25.0,25.0,100,30.28,0.5,Calm,Calm,-,N/A,Fog,Light Freezing Fog,0,2013-02-26 08:52:00
4:09 AM,24.8,24.8,100,30.23,1.2,Calm,Calm,-,N/A,,Overcast,0,2013-02-26 09:09:00
4:13 AM,24.8,24.8,100,30.23,1.5,Calm,Calm,-,N/A,,Overcast,0,2013-02-26 09:13:00
4:18 AM,24.8,24.8,100,30.23,1.0,Calm,Calm,-,N/A,,Overcast,0,2013-02-26 09:18:00
4:27 AM,26.6,24.8,93,30.23,2.0,Calm,Calm,-,N/A,,Overcast,0,2013-02-26 09:27:00
4:34 AM,26.6,24.8,93,30.24,3.0,Calm,Calm,-,N/A,,Mostly Cloudy,0,2013-02-26 09:34:00
4:37 AM,24.8,24.8,100,30.23,1.5,Calm,Calm,-,N/A,,Mostly Cloudy,0,2013-02-26 09:37:00
4:39 AM,24.8,24.8,100,30.23,1.0,Calm,Calm,-,N/A,,Mostly Cloudy,0,2013-02-26 09:39:00
4:52 AM,23.0,23.0,100,30.29,0.5,Calm,Calm,-,N/A,Fog,Light Freezing Fog,0,2013-02-26 09:52:00
5:22 AM,21.2,19.4,93,30.25,0.2,Calm,Calm,-,N/A,Fog,Light Freezing Fog,0,2013-02-26 10:22:00
5:31 AM,23.0,21.2,93,30.24,0.2,Calm,Calm,-,N/A,Fog,Light Freezing Fog,0,2013-02-26 10:31:00
5:52 AM,21.9,21.0,96,30.31,0.2,Calm,Calm,-,N/A,Fog,Light Freezing Fog,0,2013-02-26 10:52:00
6:52 AM,21.0,19.9,96,30.32,0.2,Calm,Calm,-,N/A,Fog,Light Freezing Fog,0,2013-02-26 11:52:00
7:06 AM,23.0,21.2,93,30.26,0.2,Calm,Calm,-,N/A,Fog,Light Freezing Fog,0,2013-02-26 12:06:00
7:16 AM,21.2,21.2,100,30.26,0.5,Calm,Calm,-,N/A,Fog,Light Freezing Fog,0,2013-02-26 12:16:00
7:32 AM,24.8,23.0,93,30.27,0.2,Calm,Calm,-,N/A,Fog,Light Freezing Fog,0,2013-02-26 12:32:00
7:52 AM,25.0,25.0,100,30.34,0.5,Calm,Calm,-,N/A,Fog,Light Freezing Fog,0,2013-02-26 12:52:00
7:59 AM,24.8,24.8,100,30.28,1.0,Calm,Calm,-,N/A,,Clear,0,2013-02-26 12:59:00
8:09 AM,26.6,26.6,100,30.28,0.8,Calm,Calm,-,N/A,,Partly Cloudy,0,2013-02-26 13:09:00
8:14 AM,26.6,26.6,100,30.28,1.5,Calm,Calm,-,N/A,,Clear,0,2013-02-26 13:14:00
8:17 AM,26.6,26.6,100,30.28,3.0,Calm,Calm,-,N/A,,Clear,0,2013-02-26 13:17:00
8:52 AM,30.9,28.0,89,30.34,9.0,Calm,Calm,-,N/A,,Clear,0,2013-02-26 13:52:00
10:44 AM,35.6,28.4,75,30.28,10.0,Variable,5.8,-,N/A,,Scattered Clouds,0,2013-02-26 15:44:00
10:52 AM,35.1,28.0,76,30.33,10.0,Variable,3.5,-,N/A,,Scattered Clouds,0,2013-02-26 15:52:00
11:52 AM,36.0,28.0,73,30.32,10.0,Variable,3.5,-,N/A,,Mostly Cloudy,0,2013-02-26 16:52:00
12:52 PM,36.0,28.0,73,30.32,10.0,Variable,3.5,-,N/A,,Overcast,0,2013-02-26 17:52:00
1:52 PM,36.0,28.9,76,30.31,10.0,SE,3.5,-,N/A,,Overcast,130,2013-02-26 18:52:00
3:52 PM,35.1,28.9,78,30.28,10.0,Calm,Calm,-,N/A,,Overcast,0,2013-02-26 20:52:00
4:52 PM,34.0,28.9,82,30.27,10.0,Variable,3.5,-,N/A,,Overcast,0,2013-02-26 21:52:00
5:52 PM,34.0,27.0,75,30.27,10.0,Variable,3.5,-,N/A,,Overcast,0,2013-02-26 22:52:00
6:52 PM,33.1,25.0,72,30.27,10.0,Variable,4.6,-,N/A,,Mostly Cloudy,0,2013-02-26 23:52:00
7:52 PM,32.0,25.0,75,30.27,10.0,Calm,Calm,-,N/A,,Clear,0,2013-02-27 00:52:00
8:52 PM,30.9,25.0,79,30.25,10.0,Calm,Calm,-,N/A,,Clear,0,2013-02-27 01:52:00
9:52 PM,30.9,25.0,79,30.22,10.0,Variable,4.6,-,N/A,,Clear,0,2013-02-27 02:52:00
10:52 PM,32.0,25.0,75,30.18,10.0,Variable,3.5,-,N/A,,Partly Cloudy,0,2013-02-27 03:52:00